{"data":{"norad_id":63677,"intl_designator":"2025-085P","name":"STARLINK-33816","alt_names":[],"object_type":"PAYLOAD","status":"ACTIVE","operator":null,"country":"US","launch_date":"2025-04-28","launch_site_code":"AFETR","launch_vehicle":null,"mission":null,"orbit_class":"UNKNOWN","rcs_meters":null,"size_class":null,"mass_kg":null,"dimensions":null,"purposes":["comms"],"wikipedia_slug":null,"has_3d_model":false,"image_url":null,"decayed_at":null,"tle_current":{"epoch":"2026-05-24T21:36:22.459680Z","epoch_age_seconds":87675,"freshness":"FRESH","line1":"1 63677U 25085P   26144.90025995  .00014648  00000+0  54054-3 0  9998","line2":"2 63677  42.9988 320.6682 0001413 276.5458  83.5233 15.27592742 60626","mean_motion":15.27592742,"eccentricity":0.0001413,"inclination_deg":42.9988,"raan_deg":320.6682,"arg_perigee_deg":276.5458,"mean_anomaly_deg":83.5233,"bstar":0.00054054,"rev_number":6062,"period_min":94.265962413168,"perigee_km":482.04146196872,"apogee_km":483.98042237718,"semimajor_km":6861.147942173,"source":"CELESTRAK","updated_at":"2026-05-25T13:38:20.093291Z"}}}